Year,Month,Day,Hour,Minute,Value (Times are PST for windspeed in km/hr)
2008,08,30,00,00,4.30
2008,08,30,00,01,8.50
2008,08,30,00,02,5.70
2008,08,30,00,03,9.90
2008,08,30,00,04,5.90
2008,08,30,00,05,5.70
2008,08,30,00,06,6.60
2008,08,30,00,07,7.30
2008,08,30,00,08,4.90
2008,08,30,00,09,6.40
2008,08,30,00,10,2.20
2008,08,30,00,11,5.50
2008,08,30,00,12,7.30
2008,08,30,00,13,5.10
2008,08,30,00,14,6.10
2008,08,30,00,15,6.40
2008,08,30,00,16,9.70
2008,08,30,00,17,9.60
2008,08,30,00,18,7.20
2008,08,30,00,19,6.80
2008,08,30,00,20,7.30
2008,08,30,00,21,6.00
2008,08,30,00,22,5.60
2008,08,30,00,23,4.40
2008,08,30,00,24,4.40
2008,08,30,00,25,4.70
2008,08,30,00,26,6.30
2008,08,30,00,27,4.80
2008,08,30,00,28,4.80
2008,08,30,00,29,4.80
2008,08,30,00,30,4.80
2008,08,30,00,31,4.80
2008,08,30,00,32,4.50
2008,08,30,00,33,8.60
2008,08,30,00,34,5.40
2008,08,30,00,35,5.40
2008,08,30,00,36,5.40
2008,08,30,00,37,4.60
2008,08,30,00,38,7.40
2008,08,30,00,39,7.90
2008,08,30,00,40,8.30
2008,08,30,00,41,7.20
2008,08,30,00,42,6.40
2008,08,30,00,43,6.00
2008,08,30,00,44,8.20
2008,08,30,00,45,9.60
2008,08,30,00,46,8.10
2008,08,30,00,47,10.10
2008,08,30,00,48,7.60
2008,08,30,00,49,6.90
2008,08,30,00,50,14.60
2008,08,30,00,51,10.70
2008,08,30,00,52,8.50
2008,08,30,00,53,5.60
2008,08,30,00,54,7.20
2008,08,30,00,55,10.40
2008,08,30,00,56,5.30
2008,08,30,00,57,10.70
2008,08,30,00,58,13.60
2008,08,30,00,59,14.40
2008,08,30,01,00,13.10
2008,08,30,01,01,14.30
2008,08,30,01,02,8.40
2008,08,30,01,03,9.20
2008,08,30,01,04,7.80
2008,08,30,01,05,6.20
2008,08,30,01,06,7.60
2008,08,30,01,07,9.70
2008,08,30,01,08,9.20
2008,08,30,01,09,5.90
2008,08,30,01,10,8.10
2008,08,30,01,11,7.20
2008,08,30,01,12,9.70
2008,08,30,01,13,7.30
2008,08,30,01,14,6.70
2008,08,30,01,15,7.40
2008,08,30,01,16,11.50
2008,08,30,01,17,14.40
2008,08,30,01,18,9.50
2008,08,30,01,19,7.10
2008,08,30,01,20,8.30
2008,08,30,01,21,9.30
2008,08,30,01,22,9.60
2008,08,30,01,23,9.80
2008,08,30,01,24,8.90
2008,08,30,01,25,9.00
2008,08,30,01,26,6.30
2008,08,30,01,27,6.50
2008,08,30,01,28,6.30
2008,08,30,01,29,4.80
2008,08,30,01,30,5.30
2008,08,30,01,31,4.80
2008,08,30,01,32,7.40
2008,08,30,01,33,8.80
2008,08,30,01,34,6.90
2008,08,30,01,35,6.20
2008,08,30,01,36,5.30
2008,08,30,01,37,6.30
2008,08,30,01,38,5.20
2008,08,30,01,39,3.90
2008,08,30,01,40,8.50
2008,08,30,01,41,9.30
2008,08,30,01,42,6.80
2008,08,30,01,43,5.60
2008,08,30,01,44,9.00
2008,08,30,01,45,9.30
2008,08,30,01,46,8.00
2008,08,30,01,47,9.60
2008,08,30,01,48,9.70
2008,08,30,01,49,9.60
2008,08,30,01,50,8.60
2008,08,30,01,51,9.00
2008,08,30,01,52,5.90
2008,08,30,01,53,7.20
2008,08,30,01,54,10.20
2008,08,30,01,55,11.00
2008,08,30,01,56,10.50
2008,08,30,01,57,12.60
2008,08,30,01,58,8.60
2008,08,30,01,59,8.60
2008,08,30,02,00,7.80
2008,08,30,02,01,7.80
2008,08,30,02,02,7.80
2008,08,30,02,03,10.00
2008,08,30,02,04,6.50
2008,08,30,02,05,9.70
2008,08,30,02,06,5.40
2008,08,30,02,07,6.40
2008,08,30,02,08,5.80
2008,08,30,02,09,10.30
2008,08,30,02,10,6.40
2008,08,30,02,11,7.20
2008,08,30,02,12,7.80
2008,08,30,02,13,6.40
2008,08,30,02,14,7.10
2008,08,30,02,15,14.80
2008,08,30,02,16,11.80
2008,08,30,02,17,8.30
2008,08,30,02,18,8.50
2008,08,30,02,19,7.70
2008,08,30,02,20,7.10
2008,08,30,02,21,6.40
2008,08,30,02,22,4.50
2008,08,30,02,23,4.80
2008,08,30,02,24,6.10
2008,08,30,02,25,3.00
2008,08,30,02,26,4.70
2008,08,30,02,27,3.50
2008,08,30,02,28,4.70
2008,08,30,02,29,4.00
2008,08,30,02,30,7.30
2008,08,30,02,31,4.60
2008,08,30,02,32,4.30
2008,08,30,02,33,4.80
2008,08,30,02,34,4.80
2008,08,30,02,35,7.20
2008,08,30,02,36,7.10
2008,08,30,02,37,5.80
2008,08,30,02,38,4.50
2008,08,30,02,39,7.30
2008,08,30,02,40,9.80
2008,08,30,02,41,13.00
2008,08,30,02,42,11.30
2008,08,30,02,43,9.60
2008,08,30,02,44,6.70
2008,08,30,02,45,6.00
2008,08,30,02,46,9.20
2008,08,30,02,47,9.30
2008,08,30,02,48,4.90
2008,08,30,02,49,7.20
2008,08,30,02,50,3.50
2008,08,30,02,51,5.90
2008,08,30,02,52,6.40
2008,08,30,02,53,5.90
2008,08,30,02,54,9.70
2008,08,30,02,55,7.50
2008,08,30,02,56,9.90
2008,08,30,02,57,8.60
2008,08,30,02,58,6.80
2008,08,30,02,59,6.20
2008,08,30,03,00,8.10
2008,08,30,03,01,7.40
2008,08,30,03,02,8.70
2008,08,30,03,03,7.50
2008,08,30,03,04,3.50
2008,08,30,03,05,4.10
2008,08,30,03,06,6.40
2008,08,30,03,07,3.00
2008,08,30,03,08,1.30
2008,08,30,03,09,5.00
2008,08,30,03,10,4.20
2008,08,30,03,11,2.60
2008,08,30,03,12,3.50
2008,08,30,03,13,5.30
2008,08,30,03,14,6.40
2008,08,30,03,15,7.40
2008,08,30,03,16,5.70
2008,08,30,03,17,7.90
2008,08,30,03,18,6.40
2008,08,30,03,19,6.70
2008,08,30,03,20,6.10
2008,08,30,03,21,4.80
2008,08,30,03,22,4.40
2008,08,30,03,23,6.40
2008,08,30,03,24,6.40
2008,08,30,03,25,3.50
2008,08,30,03,26,3.50
2008,08,30,03,27,5.00
2008,08,30,03,28,5.60
2008,08,30,03,29,6.50
2008,08,30,03,30,6.40
2008,08,30,03,31,2.90
2008,08,30,03,32,3.20
2008,08,30,03,33,2.10
2008,08,30,03,34,1.60
2008,08,30,03,35,3.30
2008,08,30,03,36,2.50
2008,08,30,03,37,1.10
2008,08,30,03,38,1.20
2008,08,30,03,39,2.50
2008,08,30,03,40,2.50
2008,08,30,03,41,4.40
2008,08,30,03,42,6.10
2008,08,30,03,43,3.00
2008,08,30,03,44,2.80
2008,08,30,03,45,2.90
2008,08,30,03,46,1.80
2008,08,30,03,47,1.80
2008,08,30,03,48,5.30
2008,08,30,03,49,2.70
2008,08,30,03,50,0.70
2008,08,30,03,51,2.20
2008,08,30,03,52,3.80
2008,08,30,03,53,3.10
2008,08,30,03,54,0.40
2008,08,30,03,55,1.60
2008,08,30,03,56,0.00
2008,08,30,03,57,0.00
2008,08,30,03,58,0.60
2008,08,30,03,59,0.20
2008,08,30,04,00,0.00
2008,08,30,04,01,0.20
2008,08,30,04,02,1.40
2008,08,30,04,03,0.70
2008,08,30,04,04,0.10
2008,08,30,04,05,1.80
2008,08,30,04,06,1.60
2008,08,30,04,07,1.10
2008,08,30,04,08,0.40
2008,08,30,04,09,0.40
2008,08,30,04,10,0.80
2008,08,30,04,11,3.10
2008,08,30,04,12,2.30
2008,08,30,04,13,0.90
2008,08,30,04,14,2.30
2008,08,30,04,15,3.00
2008,08,30,04,16,1.90
2008,08,30,04,17,3.00
2008,08,30,04,18,4.10
2008,08,30,04,19,3.50
2008,08,30,04,20,2.10
2008,08,30,04,21,2.00
2008,08,30,04,22,3.80
2008,08,30,04,23,4.80
2008,08,30,04,24,2.60
2008,08,30,04,25,0.70
2008,08,30,04,26,3.80
2008,08,30,04,27,3.20
2008,08,30,04,28,3.40
2008,08,30,04,29,2.10
2008,08,30,04,30,2.70
2008,08,30,04,31,1.40
2008,08,30,04,32,5.80
2008,08,30,04,33,4.10
2008,08,30,04,34,3.20
2008,08,30,04,35,3.10
2008,08,30,04,36,3.80
2008,08,30,04,37,3.20
2008,08,30,04,38,4.60
2008,08,30,04,39,5.30
2008,08,30,04,40,5.90
2008,08,30,04,41,3.40
2008,08,30,04,42,4.70
2008,08,30,04,43,4.40
2008,08,30,04,44,4.50
2008,08,30,04,45,3.90
2008,08,30,04,46,2.90
2008,08,30,04,47,6.40
2008,08,30,04,48,5.10
2008,08,30,04,49,4.60
2008,08,30,04,50,7.90
2008,08,30,04,51,7.20
2008,08,30,04,52,6.00
2008,08,30,04,53,4.40
2008,08,30,04,54,6.60
2008,08,30,04,55,4.60
2008,08,30,04,56,5.50
2008,08,30,04,57,8.20
2008,08,30,04,58,7.20
2008,08,30,04,59,7.80
2008,08,30,05,00,7.00
2008,08,30,05,01,5.10
2008,08,30,05,02,6.30
2008,08,30,05,03,6.00
2008,08,30,05,04,6.40
2008,08,30,05,05,6.80
2008,08,30,05,06,7.20
2008,08,30,05,07,5.30
2008,08,30,05,08,7.10
2008,08,30,05,09,5.40
2008,08,30,05,10,5.60
2008,08,30,05,11,6.40
2008,08,30,05,12,8.20
2008,08,30,05,13,13.00
2008,08,30,05,14,9.10
2008,08,30,05,15,8.10
2008,08,30,05,16,8.50
2008,08,30,05,17,6.30
2008,08,30,05,18,7.00
2008,08,30,05,19,6.90
2008,08,30,05,20,6.60
2008,08,30,05,21,7.40
2008,08,30,05,22,7.80
2008,08,30,05,23,7.40
2008,08,30,05,24,4.00
2008,08,30,05,25,5.60
2008,08,30,05,26,7.70
2008,08,30,05,27,7.80
2008,08,30,05,28,6.50
2008,08,30,05,29,5.40
2008,08,30,05,30,9.00
2008,08,30,05,31,5.70
2008,08,30,05,32,3.90
2008,08,30,05,33,4.70
2008,08,30,05,34,6.20
2008,08,30,05,35,7.30
2008,08,30,05,36,5.90
2008,08,30,05,37,6.10
2008,08,30,05,38,6.40
2008,08,30,05,39,4.20
2008,08,30,05,40,8.20
2008,08,30,05,41,7.00
2008,08,30,05,42,4.40
2008,08,30,05,43,5.20
2008,08,30,05,44,3.20
2008,08,30,05,45,5.20
2008,08,30,05,46,4.90
2008,08,30,05,47,3.60
2008,08,30,05,48,1.30
2008,08,30,05,49,7.10
2008,08,30,05,50,3.70
2008,08,30,05,51,1.50
2008,08,30,05,52,4.90
2008,08,30,05,53,2.30
2008,08,30,05,54,2.50
2008,08,30,05,55,2.60
2008,08,30,05,56,1.50
2008,08,30,05,57,1.70
2008,08,30,05,58,2.60
2008,08,30,05,59,1.50
2008,08,30,06,00,4.60
2008,08,30,06,01,4.60
2008,08,30,06,02,4.80
2008,08,30,06,03,3.20
2008,08,30,06,04,3.40
2008,08,30,06,05,7.10
2008,08,30,06,06,5.40
2008,08,30,06,07,3.60
2008,08,30,06,08,2.50
2008,08,30,06,09,2.40
2008,08,30,06,10,4.20
2008,08,30,06,11,2.30
2008,08,30,06,12,3.30
2008,08,30,06,13,3.10
2008,08,30,06,14,4.60
2008,08,30,06,15,4.80
2008,08,30,06,16,4.80
2008,08,30,06,17,4.70
2008,08,30,06,18,1.20
2008,08,30,06,19,2.00
2008,08,30,06,20,2.60
2008,08,30,06,21,3.20
2008,08,30,06,22,3.30
2008,08,30,06,23,4.80
2008,08,30,06,24,5.20
2008,08,30,06,25,4.70
2008,08,30,06,26,3.00
2008,08,30,06,27,3.20
2008,08,30,06,28,0.90
2008,08,30,06,29,2.20
2008,08,30,06,30,1.50
2008,08,30,06,31,3.00
2008,08,30,06,32,2.90
2008,08,30,06,33,4.40
2008,08,30,06,34,3.00
2008,08,30,06,35,2.30
2008,08,30,06,36,3.40
2008,08,30,06,37,4.80
2008,08,30,06,38,4.80
2008,08,30,06,39,3.80
2008,08,30,06,40,3.80
2008,08,30,06,41,3.50
2008,08,30,06,42,3.20
2008,08,30,06,43,2.70
2008,08,30,06,44,1.70
2008,08,30,06,45,3.80
2008,08,30,06,46,4.50
2008,08,30,06,47,3.90
2008,08,30,06,48,4.60
2008,08,30,06,49,4.80
2008,08,30,06,50,3.50
2008,08,30,06,51,4.10
2008,08,30,06,52,3.40
2008,08,30,06,53,1.90
2008,08,30,06,54,3.40
2008,08,30,06,55,2.90
2008,08,30,06,56,3.60
2008,08,30,06,57,1.80
2008,08,30,06,58,2.70
2008,08,30,06,59,2.00
2008,08,30,07,00,1.80
2008,08,30,07,01,2.10
2008,08,30,07,02,1.90
2008,08,30,07,03,2.00
2008,08,30,07,04,2.30
2008,08,30,07,05,1.70
2008,08,30,07,06,1.50
2008,08,30,07,07,0.80
2008,08,30,07,08,0.20
2008,08,30,07,09,0.50
2008,08,30,07,10,1.40
2008,08,30,07,11,0.50
2008,08,30,07,12,0.70
2008,08,30,07,13,0.00
2008,08,30,07,14,0.00
2008,08,30,07,15,0.00
2008,08,30,07,16,0.00
2008,08,30,07,17,0.00
2008,08,30,07,18,0.00
2008,08,30,07,19,1.10
2008,08,30,07,20,4.50
2008,08,30,07,21,4.20
2008,08,30,07,22,2.70
2008,08,30,07,23,3.70
2008,08,30,07,24,1.80
2008,08,30,07,25,1.90
2008,08,30,07,26,1.40
2008,08,30,07,27,1.40
2008,08,30,07,28,0.50
2008,08,30,07,29,0.40
2008,08,30,07,30,0.30
2008,08,30,07,31,0.10
2008,08,30,07,32,0.10
2008,08,30,07,33,0.80
2008,08,30,07,34,0.40
2008,08,30,07,35,0.10
2008,08,30,07,36,0.10
2008,08,30,07,37,0.60
2008,08,30,07,38,1.00
2008,08,30,07,39,1.80
2008,08,30,07,40,0.40
2008,08,30,07,41,0.00
2008,08,30,07,42,0.00
2008,08,30,07,43,0.00
2008,08,30,07,44,0.00
2008,08,30,07,45,0.00
2008,08,30,07,46,0.00
2008,08,30,07,47,0.00
2008,08,30,07,48,0.00
2008,08,30,07,49,0.10
2008,08,30,07,50,0.50
2008,08,30,07,51,0.30
2008,08,30,07,52,1.40
2008,08,30,07,53,1.10
2008,08,30,07,54,0.30
2008,08,30,07,55,0.10
2008,08,30,07,56,0.00
2008,08,30,07,57,0.00
2008,08,30,07,58,0.00
2008,08,30,07,59,0.00
2008,08,30,08,00,0.00
2008,08,30,08,01,0.00
2008,08,30,08,02,0.00
2008,08,30,08,03,0.00
2008,08,30,08,04,0.00
2008,08,30,08,05,0.00
2008,08,30,08,06,0.00
2008,08,30,08,07,0.00
2008,08,30,08,08,0.00
2008,08,30,08,09,0.00
2008,08,30,08,10,0.00
2008,08,30,08,11,0.00
2008,08,30,08,12,0.00
2008,08,30,08,13,0.00
2008,08,30,08,14,0.00
2008,08,30,08,15,0.90
2008,08,30,08,16,1.20
2008,08,30,08,17,0.50
2008,08,30,08,18,0.60
2008,08,30,08,19,0.40
2008,08,30,08,20,1.10
2008,08,30,08,21,2.50
2008,08,30,08,22,1.40
2008,08,30,08,23,0.00
2008,08,30,08,24,0.00
2008,08,30,08,25,0.00
2008,08,30,08,26,0.00
2008,08,30,08,27,1.00
2008,08,30,08,28,0.50
2008,08,30,08,29,0.10
2008,08,30,08,30,0.00
2008,08,30,08,31,0.00
2008,08,30,08,32,0.00
2008,08,30,08,33,0.00
2008,08,30,08,34,0.20
2008,08,30,08,35,1.10
2008,08,30,08,36,0.40
2008,08,30,08,37,0.20
2008,08,30,08,38,1.40
2008,08,30,08,39,3.50
2008,08,30,08,40,2.50
2008,08,30,08,41,2.10
2008,08,30,08,42,1.90
2008,08,30,08,43,2.70
2008,08,30,08,44,4.00
2008,08,30,08,45,3.40
2008,08,30,08,46,2.00
2008,08,30,08,47,2.50
2008,08,30,08,48,1.40
2008,08,30,08,49,0.60
2008,08,30,08,50,2.80
2008,08,30,08,51,1.10
2008,08,30,08,52,1.10
2008,08,30,08,53,1.30
2008,08,30,08,54,2.80
2008,08,30,08,55,1.50
2008,08,30,08,56,3.30
2008,08,30,08,57,2.30
2008,08,30,08,58,2.30
2008,08,30,08,59,4.00
2008,08,30,09,00,3.80
2008,08,30,09,01,5.40
2008,08,30,09,02,3.80
2008,08,30,09,03,5.30
2008,08,30,09,04,4.90
2008,08,30,09,05,7.30
2008,08,30,09,06,8.10
2008,08,30,09,07,8.10
2008,08,30,09,08,7.00
2008,08,30,09,09,6.40
2008,08,30,09,10,6.90
2008,08,30,09,11,5.50
2008,08,30,09,12,4.70
2008,08,30,09,13,4.50
2008,08,30,09,14,4.60
2008,08,30,09,15,4.80
2008,08,30,09,16,4.10
2008,08,30,09,17,3.10
2008,08,30,09,18,3.10
2008,08,30,09,19,2.40
2008,08,30,09,20,3.60
2008,08,30,09,21,5.20
2008,08,30,09,22,4.60
2008,08,30,09,23,5.60
2008,08,30,09,24,6.40
2008,08,30,09,25,6.40
2008,08,30,09,26,4.50
2008,08,30,09,27,3.80
2008,08,30,09,28,5.30
2008,08,30,09,29,2.60
2008,08,30,09,30,2.80
2008,08,30,09,31,1.50
2008,08,30,09,32,4.50
2008,08,30,09,33,4.70
2008,08,30,09,34,5.30
2008,08,30,09,35,4.40
2008,08,30,09,36,2.50
2008,08,30,09,37,2.00
2008,08,30,09,38,3.60
2008,08,30,09,39,2.70
2008,08,30,09,40,1.90
2008,08,30,09,41,3.70
2008,08,30,09,42,1.50
2008,08,30,09,43,2.30
2008,08,30,09,44,5.10
2008,08,30,09,45,4.10
2008,08,30,09,46,2.80
2008,08,30,09,47,1.30
2008,08,30,09,48,1.80
2008,08,30,09,49,1.90
2008,08,30,09,50,1.10
2008,08,30,09,51,0.70
2008,08,30,09,52,2.50
2008,08,30,09,53,5.10
2008,08,30,09,54,3.20
2008,08,30,09,55,3.20
2008,08,30,09,56,4.30
2008,08,30,09,57,4.70
2008,08,30,09,58,3.10
2008,08,30,09,59,1.50
2008,08,30,10,00,0.00
2008,08,30,10,01,0.10
2008,08,30,10,02,1.50
2008,08,30,10,03,1.70
2008,08,30,10,04,1.70
2008,08,30,10,05,1.10
2008,08,30,10,06,0.10
2008,08,30,10,07,1.80
2008,08,30,10,08,0.50
2008,08,30,10,09,1.80
2008,08,30,10,10,3.30
2008,08,30,10,11,3.00
2008,08,30,10,12,3.30
2008,08,30,10,13,5.50
2008,08,30,10,14,2.70
2008,08,30,10,15,4.10
2008,08,30,10,16,5.00
2008,08,30,10,17,4.60
2008,08,30,10,18,2.50
2008,08,30,10,19,2.90
2008,08,30,10,20,2.10
2008,08,30,10,21,1.90
2008,08,30,10,22,2.00
2008,08,30,10,23,1.20
2008,08,30,10,24,1.90
2008,08,30,10,25,0.10
2008,08,30,10,26,0.20
2008,08,30,10,27,0.30
2008,08,30,10,28,0.80
2008,08,30,10,29,1.90
2008,08,30,10,30,4.00
2008,08,30,10,31,3.70
2008,08,30,10,32,3.80
2008,08,30,10,33,1.50
2008,08,30,10,34,1.30
2008,08,30,10,35,0.70
2008,08,30,10,36,1.10
2008,08,30,10,37,4.80
2008,08,30,10,38,6.00
2008,08,30,10,39,6.50
2008,08,30,10,40,5.60
2008,08,30,10,41,4.20
2008,08,30,10,42,1.60
2008,08,30,10,43,5.40
2008,08,30,10,44,3.70
2008,08,30,10,45,2.80
2008,08,30,10,46,3.40
2008,08,30,10,47,3.10
2008,08,30,10,48,0.80
2008,08,30,10,49,5.70
2008,08,30,10,50,5.30
2008,08,30,10,51,1.60
2008,08,30,10,52,1.60
2008,08,30,10,53,1.60
2008,08,30,10,54,1.60
2008,08,30,10,55,2.30
2008,08,30,10,56,8.10
2008,08,30,10,57,8.10
2008,08,30,10,58,2.00
2008,08,30,10,59,1.80
2008,08,30,11,00,2.30
2008,08,30,11,01,5.80
2008,08,30,11,02,6.10
2008,08,30,11,03,5.20
2008,08,30,11,04,3.20
2008,08,30,11,05,2.30
2008,08,30,11,06,8.10
2008,08,30,11,07,5.00
2008,08,30,11,08,7.30
2008,08,30,11,09,5.20
2008,08,30,11,10,6.80
2008,08,30,11,11,5.80
2008,08,30,11,12,4.90
2008,08,30,11,13,4.00
2008,08,30,11,14,4.50
2008,08,30,11,15,3.60
2008,08,30,11,16,5.50
2008,08,30,11,17,3.70
2008,08,30,11,18,3.50
2008,08,30,11,19,1.40
2008,08,30,11,20,4.30
2008,08,30,11,21,0.90
2008,08,30,11,22,1.30
2008,08,30,11,23,2.70
2008,08,30,11,24,3.00
2008,08,30,11,25,0.20
2008,08,30,11,26,2.60
2008,08,30,11,27,4.20
2008,08,30,11,28,6.20
2008,08,30,11,29,3.40
2008,08,30,11,30,4.30
2008,08,30,11,31,4.70
2008,08,30,11,32,5.50
2008,08,30,11,33,2.30
2008,08,30,11,34,1.20
2008,08,30,11,35,1.90
2008,08,30,11,36,3.90
2008,08,30,11,37,7.20
2008,08,30,11,38,6.60
2008,08,30,11,39,7.50
2008,08,30,11,40,5.60
2008,08,30,11,41,8.50
2008,08,30,11,42,6.60
2008,08,30,11,43,5.50
2008,08,30,11,44,3.00
2008,08,30,11,45,4.80
2008,08,30,11,46,6.70
2008,08,30,11,47,5.30
2008,08,30,11,48,2.20
2008,08,30,11,49,1.40
2008,08,30,11,50,11.00
2008,08,30,11,51,10.40
2008,08,30,11,52,7.90
2008,08,30,11,53,7.10
2008,08,30,11,54,5.90
2008,08,30,11,55,8.00
2008,08,30,11,56,3.90
2008,08,30,11,57,4.50
2008,08,30,11,58,4.60
2008,08,30,11,59,6.50
2008,08,30,12,00,6.00
2008,08,30,12,01,3.60
2008,08,30,12,02,3.00
2008,08,30,12,03,2.40
2008,08,30,12,04,2.60
2008,08,30,12,05,5.60
2008,08,30,12,06,7.60
2008,08,30,12,07,7.70
2008,08,30,12,08,4.10
2008,08,30,12,09,2.00
2008,08,30,12,10,1.60
2008,08,30,12,11,2.10
2008,08,30,12,12,4.20
2008,08,30,12,13,3.20
2008,08,30,12,14,0.70
2008,08,30,12,15,2.60
2008,08,30,12,16,6.70
2008,08,30,12,17,5.60
2008,08,30,12,18,6.10
2008,08,30,12,19,1.50
2008,08,30,12,20,1.10
2008,08,30,12,21,4.30
2008,08,30,12,22,2.90
2008,08,30,12,23,2.40
2008,08,30,12,24,1.50
2008,08,30,12,25,2.50
2008,08,30,12,26,6.60
2008,08,30,12,27,2.60
2008,08,30,12,28,6.50
2008,08,30,12,29,3.90
2008,08,30,12,30,11.10
2008,08,30,12,31,5.90
2008,08,30,12,32,8.00
2008,08,30,12,33,5.80
2008,08,30,12,34,2.30
2008,08,30,12,35,5.80
2008,08,30,12,36,3.20
2008,08,30,12,37,2.30
2008,08,30,12,38,0.20
2008,08,30,12,39,0.20
2008,08,30,12,40,1.60
2008,08,30,12,41,8.90
2008,08,30,12,42,3.70
2008,08,30,12,43,3.10
2008,08,30,12,44,5.30
2008,08,30,12,45,6.50
2008,08,30,12,46,5.20
2008,08,30,12,47,8.00
2008,08,30,12,48,8.60
2008,08,30,12,49,8.10
2008,08,30,12,50,8.10
2008,08,30,12,51,8.00
2008,08,30,12,52,5.20
2008,08,30,12,53,2.10
2008,08,30,12,54,6.80
2008,08,30,12,55,3.30
2008,08,30,12,56,4.60
2008,08,30,12,57,6.30
2008,08,30,12,58,3.70
2008,08,30,12,59,1.90
2008,08,30,13,00,1.10
2008,08,30,13,01,4.10
2008,08,30,13,02,7.50
2008,08,30,13,03,5.80
2008,08,30,13,04,2.70
2008,08,30,13,05,11.80
2008,08,30,13,06,5.40
2008,08,30,13,07,2.10
2008,08,30,13,08,11.00
2008,08,30,13,09,6.80
2008,08,30,13,10,6.70
2008,08,30,13,11,4.20
2008,08,30,13,12,4.70
2008,08,30,13,13,7.60
2008,08,30,13,14,7.60
2008,08,30,13,15,5.70
2008,08,30,13,16,7.00
2008,08,30,13,17,9.70
2008,08,30,13,18,4.90
2008,08,30,13,19,5.10
2008,08,30,13,20,7.80
2008,08,30,13,21,6.30
2008,08,30,13,22,1.80
2008,08,30,13,23,6.00
2008,08,30,13,24,9.00
2008,08,30,13,25,9.60
2008,08,30,13,26,6.10
2008,08,30,13,27,5.00
2008,08,30,13,28,5.00
2008,08,30,13,29,4.80
2008,08,30,13,30,4.80
2008,08,30,13,31,4.80
2008,08,30,13,32,11.70
2008,08,30,13,33,10.30
2008,08,30,13,34,1.30
2008,08,30,13,35,14.70
2008,08,30,13,36,8.90
2008,08,30,13,37,9.00
2008,08,30,13,38,3.20
2008,08,30,13,39,8.60
2008,08,30,13,40,6.80
2008,08,30,13,41,13.50
2008,08,30,13,42,7.70
2008,08,30,13,43,9.80
2008,08,30,13,44,9.90
2008,08,30,13,45,10.00
2008,08,30,13,46,11.50
2008,08,30,13,47,8.80
2008,08,30,13,48,7.60
2008,08,30,13,49,7.00
2008,08,30,13,50,6.90
2008,08,30,13,51,4.20
2008,08,30,13,52,7.50
2008,08,30,13,53,5.10
2008,08,30,13,54,4.80
2008,08,30,13,55,4.80
2008,08,30,13,56,12.60
2008,08,30,13,57,10.50
2008,08,30,13,58,9.30
2008,08,30,13,59,10.10
2008,08,30,14,00,10.40
2008,08,30,14,01,5.30
2008,08,30,14,02,9.10
2008,08,30,14,03,10.30
2008,08,30,14,04,7.70
2008,08,30,14,05,8.10
2008,08,30,14,06,8.00
2008,08,30,14,07,7.50
2008,08,30,14,08,4.80
2008,08,30,14,09,1.00
2008,08,30,14,10,7.80
2008,08,30,14,11,5.80
2008,08,30,14,12,7.90
2008,08,30,14,13,9.10
2008,08,30,14,14,4.50
2008,08,30,14,15,5.70
2008,08,30,14,16,7.20
2008,08,30,14,17,7.30
2008,08,30,14,18,9.30
2008,08,30,14,19,8.20
2008,08,30,14,20,11.90
2008,08,30,14,21,12.50
2008,08,30,14,22,8.30
2008,08,30,14,23,6.20
2008,08,30,14,24,6.60
2008,08,30,14,25,5.80
2008,08,30,14,26,6.90
2008,08,30,14,27,12.20
2008,08,30,14,28,12.90
2008,08,30,14,29,10.90
2008,08,30,14,30,9.30
2008,08,30,14,31,8.60
2008,08,30,14,32,6.80
2008,08,30,14,33,11.30
2008,08,30,14,34,4.60
2008,08,30,14,35,6.40
2008,08,30,14,36,5.60
2008,08,30,14,37,8.20
2008,08,30,14,38,2.10
2008,08,30,14,39,4.10
2008,08,30,14,40,7.70
2008,08,30,14,41,6.10
2008,08,30,14,42,3.90
2008,08,30,14,43,0.90
2008,08,30,14,44,6.70
2008,08,30,14,45,6.00
2008,08,30,14,46,1.80
2008,08,30,14,47,3.50
2008,08,30,14,48,5.90
2008,08,30,14,49,4.70
2008,08,30,14,50,9.60
2008,08,30,14,51,8.50
2008,08,30,14,52,3.40
2008,08,30,14,53,3.90
2008,08,30,14,54,10.20
2008,08,30,14,55,6.00
2008,08,30,14,56,5.90
2008,08,30,14,57,2.90
2008,08,30,14,58,2.80
2008,08,30,14,59,8.40
2008,08,30,15,00,7.80
2008,08,30,15,01,4.90
2008,08,30,15,02,2.20
2008,08,30,15,03,2.50
2008,08,30,15,04,1.40
2008,08,30,15,05,3.80
2008,08,30,15,06,1.90
2008,08,30,15,07,6.20
2008,08,30,15,08,3.50
2008,08,30,15,09,2.70
2008,08,30,15,10,3.50
2008,08,30,15,11,5.30
2008,08,30,15,12,2.30
2008,08,30,15,13,0.90
2008,08,30,15,14,1.60
2008,08,30,15,15,1.10
2008,08,30,15,16,2.10
2008,08,30,15,17,3.20
2008,08,30,15,18,3.60
2008,08,30,15,19,7.10
2008,08,30,15,20,7.40
2008,08,30,15,21,5.10
2008,08,30,15,22,5.50
2008,08,30,15,23,2.80
2008,08,30,15,24,2.20
2008,08,30,15,25,5.50
2008,08,30,15,26,2.30
2008,08,30,15,27,0.00
2008,08,30,15,28,0.00
2008,08,30,15,29,0.00
2008,08,30,15,30,0.00
2008,08,30,15,31,0.00
2008,08,30,15,32,0.80
2008,08,30,15,33,8.80
2008,08,30,15,34,6.60
2008,08,30,15,35,7.10
2008,08,30,15,36,8.10
2008,08,30,15,37,5.70
2008,08,30,15,38,8.70
2008,08,30,15,39,11.20
2008,08,30,15,40,12.80
2008,08,30,15,41,8.70
2008,08,30,15,42,9.10
2008,08,30,15,43,6.50
2008,08,30,15,44,11.40
2008,08,30,15,45,6.10
2008,08,30,15,46,6.80
2008,08,30,15,47,8.90
2008,08,30,15,48,3.80
2008,08,30,15,49,5.60
2008,08,30,15,50,3.80
2008,08,30,15,51,5.00
2008,08,30,15,52,10.50
2008,08,30,15,53,6.40
2008,08,30,15,54,9.00
2008,08,30,15,55,8.60
2008,08,30,15,56,11.20
2008,08,30,15,57,9.30
2008,08,30,15,58,6.90
2008,08,30,15,59,7.70
2008,08,30,16,00,8.90
2008,08,30,16,01,6.80
2008,08,30,16,02,4.50
2008,08,30,16,03,7.70
2008,08,30,16,04,8.40
2008,08,30,16,05,4.60
2008,08,30,16,06,5.90
2008,08,30,16,07,3.10
2008,08,30,16,08,10.50
2008,08,30,16,09,7.90
2008,08,30,16,10,4.90
2008,08,30,16,11,6.10
2008,08,30,16,12,4.10
2008,08,30,16,13,8.70
2008,08,30,16,14,4.70
2008,08,30,16,15,6.70
2008,08,30,16,16,4.40
2008,08,30,16,17,2.80
2008,08,30,16,18,3.60
2008,08,30,16,19,8.70
2008,08,30,16,20,6.30
2008,08,30,16,21,15.60
2008,08,30,16,22,6.10
2008,08,30,16,23,6.80
2008,08,30,16,24,11.50
2008,08,30,16,25,6.80
2008,08,30,16,26,14.60
2008,08,30,16,27,7.20
2008,08,30,16,28,10.30
2008,08,30,16,29,10.90
2008,08,30,16,30,9.80
2008,08,30,16,31,8.00
2008,08,30,16,32,6.00
2008,08,30,16,33,4.30
2008,08,30,16,34,7.40
2008,08,30,16,35,7.80
2008,08,30,16,36,5.20
2008,08,30,16,37,10.00
2008,08,30,16,38,6.40
2008,08,30,16,39,7.60
2008,08,30,16,40,8.20
2008,08,30,16,41,5.80
2008,08,30,16,42,7.80
2008,08,30,16,43,6.60
2008,08,30,16,44,11.30
2008,08,30,16,45,8.20
2008,08,30,16,46,7.20
2008,08,30,16,47,11.70
2008,08,30,16,48,8.00
2008,08,30,16,49,5.70
2008,08,30,16,50,5.10
2008,08,30,16,51,8.40
2008,08,30,16,52,6.10
2008,08,30,16,53,2.30
2008,08,30,16,54,4.20
2008,08,30,16,55,5.70
2008,08,30,16,56,10.30
2008,08,30,16,57,7.50
2008,08,30,16,58,8.40
2008,08,30,16,59,14.80
2008,08,30,17,00,15.60
2008,08,30,17,01,16.30
2008,08,30,17,02,19.30
2008,08,30,17,03,18.00
2008,08,30,17,04,18.60
2008,08,30,17,05,17.00
2008,08,30,17,06,17.50
2008,08,30,17,07,14.80
2008,08,30,17,08,15.80
2008,08,30,17,09,9.70
2008,08,30,17,10,12.80
2008,08,30,17,11,16.90
2008,08,30,17,12,17.10
2008,08,30,17,13,6.80
2008,08,30,17,14,12.60
2008,08,30,17,15,11.70
2008,08,30,17,16,18.10
2008,08,30,17,17,18.00
2008,08,30,17,18,16.30
2008,08,30,17,19,17.00
2008,08,30,17,20,22.90
2008,08,30,17,21,18.70
2008,08,30,17,22,18.40
2008,08,30,17,23,22.40
2008,08,30,17,24,15.00
2008,08,30,17,25,19.30
2008,08,30,17,26,18.80
2008,08,30,17,27,20.00
2008,08,30,17,28,14.90
2008,08,30,17,29,17.60
2008,08,30,17,30,17.20
2008,08,30,17,31,12.70
2008,08,30,17,32,18.30
2008,08,30,17,33,19.60
2008,08,30,17,34,18.30
2008,08,30,17,35,19.80
2008,08,30,17,36,16.70
2008,08,30,17,37,18.00
2008,08,30,17,38,15.30
2008,08,30,17,39,13.40
2008,08,30,17,40,18.90
2008,08,30,17,41,17.20
2008,08,30,17,42,19.40
2008,08,30,17,43,27.30
2008,08,30,17,44,25.70
2008,08,30,17,45,19.80
2008,08,30,17,46,21.30
2008,08,30,17,47,18.10
2008,08,30,17,48,19.50
2008,08,30,17,49,21.10
2008,08,30,17,50,15.00
2008,08,30,17,51,12.60
2008,08,30,17,52,13.80
2008,08,30,17,53,15.50
2008,08,30,17,54,15.10
2008,08,30,17,55,12.10
2008,08,30,17,56,9.60
2008,08,30,17,57,9.50
2008,08,30,17,58,8.90
2008,08,30,17,59,19.10
2008,08,30,18,00,11.80
2008,08,30,18,01,11.90